星链-31706 (STARLINK-31706 )

导读

STARLINK-31706是美国太空探索技术公司(SpaceX)发射的星链卫星,于2024年4月7日发射入轨,属于星链互联网卫星星座的扩容卫星,旨在为全球提供低延迟、高速率的宽带互联网服务。作为Starlink项目批量发射的组网卫星之一,它进一步完善了星链低轨星座的全球覆盖能力,支撑卫星互联网服务的可用性与容量提升。

Basic Information
目录编号:
59437
目录名称:
STARLINK-31706
国际标识:
2024-065S
轨道中心:
EARTH
卫星名称:
星链-31706
卫星全名:
星链-31706 (STARLINK-31706 )
卫星状态:
在轨 (已飞行802 天)
发射日期:
2024-04-07 UTC
国别 :
美国 (US)
星等 :
--
Orbit Information
数据来源 国际轨道数据 AOE轨道数据
星历时间 2026-06-17T15:10:34+0800
21小时前
查看轨道信息
2026-06-14T09:00:00+0800
4天前
查看轨道信息
半长轴 6853.399km 6853.365km
偏心率 0.0001326 0.000143
轨道倾角 53.160° 53.154°
近地点辐角 67.838° 93.355°
升交点赤经 180.883° 196.010°
平近点角 292.276° 313.099°
近地点 474.353km 474.247km
远地点 476.171km 476.209km
周期 94.106分钟 94.106分钟
每日圈数 15.301845 15.30196
Detailed Information
固有亮度:
5
最大亮度:
1.5
卫星平台:
Starlink v2.0 mini
覆盖范围:
全球
运营商:
太空探索技术公司
运营商所在国:
美国
制造商(研发单位):
太空探索技术公司
制造商所在国:
美国
使用方式:
暂无
Satellite Introduction
星链(Starlink)计划是由太空探索技术公司(SpaceX)提出的一个巨型低轨卫星互联网星座项目,计划在2019年至2024年间在太空搭建由约1.2万颗卫星组成的“星链”网络,其中1584颗将部署在地球上空550千米处的近地轨道,并从2020年开始工作。该卫星仍在工作。
2D Orbit Map
3D Orbit Map
Orbit Altitude Analysis Chart
Orbit Inclination Analysis Chart
Orbit Comprehensive Analysis Chart
View Comprehensive Chart